sat.trackr.live / text

‹ back to catalog

STARLINK-4442

NORAD 53480 · 2022-099R

PAYLOAD ACTIVE UNKNOWN

§ Identity

Operator
Country
US
Launch date
2022-08-12
Launch site
AFWTR
Launch vehicle
Mass (kg)
RCS (m²)

Purposes: comms

External: N2YO · Heavens-Above · Gunter

§ Orbital elements

Epoch: 2026-05-25T06:00:02.000160Z

Period
93.80 min
Inclination
97.6032°
Eccentricity
0.0001571
Mean motion
15.35181318 rev/d
Perigee alt
459.3 km
Apogee alt
461.5 km
Semi-major
6,838.5 km
B*
4.0285e-3
RAAN
268.1052°
Arg perigee
73.6146°
Mean anomaly
119.2396°
Rev number
583

§ Raw data

STARLINK-44421 53480U 22099R   26145.25002315  .00139883  00000+0  40285-2 0  99902 53480  97.6032 268.1052 0001571  73.6146 119.2396 15.35181318  5837

JSON: /api/v1/satellites/53480 · /tle

For live sub-satellite position, see the globe view (requires WebGL).

§ Visibility from observer

Set your observer location to see the next 7 days of passes ≥ 10°. The values pass through the URL so the page stays shareable.

No JS? Fill the form by hand. The geolocation button needs JavaScript.